Time,TemperatureF,DewpointF,PressureIn,WindDirection,WindDirectionDegrees,WindSpeedMPH,WindSpeedGustMPH,Humidity,HourlyPrecipIn,Conditions,Clouds,dailyrainin,SoftwareType,DateUTC
2013-10-03 00:03:00,54.2,47.5,30.03,NE,49,0.0,0.0,78,0.00,,,0.00,WeatherTracker,2013-10-03 07:03:00,
2013-10-03 00:08:00,54.1,47.1,30.03,NE,49,0.0,0.0,77,0.00,,,0.00,WeatherTracker,2013-10-03 07:08:00,
2013-10-03 00:13:00,54.1,46.7,30.03,NE,49,0.0,0.0,76,0.00,,,0.00,WeatherTracker,2013-10-03 07:13:00,
2013-10-03 00:18:00,54.2,45.7,30.03,NE,49,0.0,0.0,73,0.00,,,0.00,WeatherTracker,2013-10-03 07:18:00,
2013-10-03 00:23:00,54.5,45.3,30.03,NE,50,0.0,0.0,71,0.00,,,0.00,WeatherTracker,2013-10-03 07:23:00,
2013-10-03 00:28:00,54.8,44.8,30.03,NE,50,0.0,0.0,69,0.00,,,0.00,WeatherTracker,2013-10-03 07:28:00,
2013-10-03 00:33:00,55.1,44.3,30.03,NE,50,0.0,0.0,67,0.00,,,0.00,WeatherTracker,2013-10-03 07:33:00,
2013-10-03 00:38:00,55.2,44.4,30.03,NE,49,0.0,0.0,67,0.00,,,0.00,WeatherTracker,2013-10-03 07:38:00,
2013-10-03 00:43:00,55.3,44.1,30.03,NE,50,1.0,0.0,66,0.00,,,0.00,WeatherTracker,2013-10-03 07:43:00,
2013-10-03 00:49:00,55.3,44.1,30.03,NE,50,0.0,0.0,66,0.00,,,0.00,WeatherTracker,2013-10-03 07:49:00,
2013-10-03 00:53:00,55.3,44.1,30.03,NE,50,0.0,0.0,66,0.00,,,0.00,WeatherTracker,2013-10-03 07:53:00,
2013-10-03 00:59:00,55.3,44.1,30.03,NE,50,0.0,0.0,66,0.00,,,0.00,WeatherTracker,2013-10-03 07:59:00,
2013-10-03 01:04:00,55.2,43.6,30.03,NE,50,0.0,0.0,65,0.00,,,0.00,WeatherTracker,2013-10-03 08:04:00,
2013-10-03 01:09:00,55.2,43.6,30.03,NE,49,0.0,0.0,65,0.00,,,0.00,WeatherTracker,2013-10-03 08:09:00,
2013-10-03 01:14:00,55.2,43.6,30.04,NE,49,0.0,0.0,65,0.00,,,0.00,WeatherTracker,2013-10-03 08:14:00,
2013-10-03 01:19:00,55.2,44.0,30.04,NE,50,0.0,0.0,66,0.00,,,0.00,WeatherTracker,2013-10-03 08:19:00,
2013-10-03 01:24:00,55.1,43.9,30.04,NE,49,0.0,0.0,66,0.00,,,0.00,WeatherTracker,2013-10-03 08:24:00,
2013-10-03 01:29:00,54.9,44.2,30.04,NE,49,0.0,0.0,67,0.00,,,0.00,WeatherTracker,2013-10-03 08:29:00,
2013-10-03 01:34:00,54.8,44.1,30.04,NE,50,0.0,0.0,67,0.00,,,0.00,WeatherTracker,2013-10-03 08:34:00,
2013-10-03 01:39:00,54.5,43.8,30.04,NE,49,0.0,0.0,67,0.00,,,0.00,WeatherTracker,2013-10-03 08:39:00,
2013-10-03 01:44:00,54.3,44.0,30.04,NE,49,0.0,0.0,68,0.00,,,0.00,WeatherTracker,2013-10-03 08:44:00,
2013-10-03 01:49:00,54.2,43.9,30.04,NE,49,0.0,0.0,68,0.00,,,0.00,WeatherTracker,2013-10-03 08:49:00,
2013-10-03 01:54:00,53.9,43.6,30.05,NE,49,0.0,0.0,68,0.00,,,0.00,WeatherTracker,2013-10-03 08:54:00,
2013-10-03 01:59:00,53.6,43.7,30.05,NE,49,0.0,0.0,69,0.00,,,0.00,WeatherTracker,2013-10-03 08:59:00,
2013-10-03 02:04:00,53.5,44.0,30.05,NE,50,0.0,0.0,70,0.00,,,0.00,WeatherTracker,2013-10-03 09:04:00,
2013-10-03 02:09:00,53.3,43.8,30.05,NE,50,0.0,0.0,70,0.00,,,0.00,WeatherTracker,2013-10-03 09:09:00,
2013-10-03 02:14:00,53.2,43.3,30.05,NE,50,1.0,0.0,69,0.00,,,0.00,WeatherTracker,2013-10-03 09:14:00,
2013-10-03 02:19:00,53.2,43.3,30.05,NE,50,0.0,0.0,69,0.00,,,0.00,WeatherTracker,2013-10-03 09:19:00,
2013-10-03 02:24:00,53.4,43.1,30.05,NE,50,0.0,0.0,68,0.00,,,0.00,WeatherTracker,2013-10-03 09:24:00,
2013-10-03 02:29:00,53.5,43.2,30.05,NE,49,0.0,0.0,68,0.00,,,0.00,WeatherTracker,2013-10-03 09:29:00,
2013-10-03 02:34:00,53.6,43.3,30.05,NE,49,0.0,0.0,68,0.00,,,0.00,WeatherTracker,2013-10-03 09:34:00,
2013-10-03 02:39:00,53.6,43.3,30.04,NE,49,0.0,0.0,68,0.00,,,0.00,WeatherTracker,2013-10-03 09:39:00,
2013-10-03 02:44:00,53.7,43.4,30.05,NE,49,0.0,0.0,68,0.00,,,0.00,WeatherTracker,2013-10-03 09:44:00,
2013-10-03 02:50:00,53.7,43.4,30.05,NE,49,0.0,0.0,68,0.00,,,0.00,WeatherTracker,2013-10-03 09:50:00,
2013-10-03 02:55:00,53.7,43.4,30.05,NE,49,0.0,0.0,68,0.00,,,0.00,WeatherTracker,2013-10-03 09:55:00,
2013-10-03 03:00:00,53.6,43.3,30.05,NE,49,0.0,0.0,68,0.00,,,0.00,WeatherTracker,2013-10-03 10:00:00,
2013-10-03 03:05:00,53.6,43.3,30.05,NE,49,0.0,0.0,68,0.00,,,0.00,WeatherTracker,2013-10-03 10:05:00,
2013-10-03 03:10:00,53.5,43.2,30.05,NE,49,0.0,0.0,68,0.00,,,0.00,WeatherTracker,2013-10-03 10:10:00,
2013-10-03 03:15:00,53.4,43.1,30.05,NE,49,0.0,0.0,68,0.00,,,0.00,WeatherTracker,2013-10-03 10:15:00,
2013-10-03 03:20:00,53.3,43.0,30.05,NE,50,0.0,0.0,68,0.00,,,0.00,WeatherTracker,2013-10-03 10:20:00,
2013-10-03 03:25:00,53.1,42.8,30.05,NE,50,0.0,0.0,68,0.00,,,0.00,WeatherTracker,2013-10-03 10:25:00,
2013-10-03 03:30:00,53.0,42.7,30.05,NE,49,0.0,0.0,68,0.00,,,0.00,WeatherTracker,2013-10-03 10:30:00,
2013-10-03 03:35:00,52.9,43.0,30.05,NE,50,0.0,0.0,69,0.00,,,0.00,WeatherTracker,2013-10-03 10:35:00,
2013-10-03 03:40:00,52.8,42.9,30.05,NE,50,0.0,0.0,69,0.00,,,0.00,WeatherTracker,2013-10-03 10:40:00,
2013-10-03 03:45:00,52.7,42.8,30.05,NE,50,0.0,0.0,69,0.00,,,0.00,WeatherTracker,2013-10-03 10:45:00,
2013-10-03 03:50:00,52.6,42.7,30.05,NE,49,0.0,0.0,69,0.00,,,0.00,WeatherTracker,2013-10-03 10:50:00,
2013-10-03 03:55:00,52.6,42.7,30.05,NE,49,0.0,0.0,69,0.00,,,0.00,WeatherTracker,2013-10-03 10:55:00,
2013-10-03 04:00:00,52.7,42.8,30.05,NE,50,0.0,0.0,69,0.00,,,0.00,WeatherTracker,2013-10-03 11:00:00,
2013-10-03 04:05:00,52.9,43.0,30.05,NE,50,2.0,0.0,69,0.00,,,0.00,WeatherTracker,2013-10-03 11:05:00,
2013-10-03 04:10:00,53.3,43.0,30.05,NE,49,2.0,0.0,68,0.00,,,0.00,WeatherTracker,2013-10-03 11:10:00,
2013-10-03 04:16:00,53.8,43.1,30.05,NE,44,3.0,0.0,67,0.00,,,0.00,WeatherTracker,2013-10-03 11:16:00,
2013-10-03 04:21:00,54.2,43.1,30.05,NE,45,1.0,0.0,66,0.00,,,0.00,WeatherTracker,2013-10-03 11:21:00,
2013-10-03 04:26:00,54.6,43.1,30.05,NE,46,0.0,0.0,65,0.00,,,0.00,WeatherTracker,2013-10-03 11:26:00,
2013-10-03 04:31:00,54.8,42.9,30.05,NE,51,4.0,0.0,64,0.00,,,0.00,WeatherTracker,2013-10-03 11:31:00,
2013-10-03 04:36:00,55.0,43.0,30.05,NE,52,2.0,0.0,64,0.00,,,0.00,WeatherTracker,2013-10-03 11:36:00,
2013-10-03 04:41:00,55.1,43.1,30.05,NE,41,2.0,0.0,64,0.00,,,0.00,WeatherTracker,2013-10-03 11:41:00,
2013-10-03 04:46:00,55.1,42.7,30.05,NE,41,0.0,0.0,63,0.00,,,0.00,WeatherTracker,2013-10-03 11:46:00,
2013-10-03 04:51:00,55.1,42.7,30.05,NE,41,0.0,0.0,63,0.00,,,0.00,WeatherTracker,2013-10-03 11:51:00,
2013-10-03 04:56:00,55.0,42.6,30.05,NE,40,0.0,0.0,63,0.00,,,0.00,WeatherTracker,2013-10-03 11:56:00,
2013-10-03 05:01:00,54.9,42.5,30.05,NE,40,0.0,0.0,63,0.00,,,0.00,WeatherTracker,2013-10-03 12:01:00,
2013-10-03 05:06:00,54.9,42.5,30.05,NE,40,3.0,0.0,63,0.00,,,0.00,WeatherTracker,2013-10-03 12:06:00,
2013-10-03 05:11:00,54.9,43.0,30.05,NE,46,1.0,0.0,64,0.00,,,0.00,WeatherTracker,2013-10-03 12:11:00,
2013-10-03 05:16:00,54.8,42.9,30.05,NE,46,2.0,0.0,64,0.00,,,0.00,WeatherTracker,2013-10-03 12:16:00,
2013-10-03 05:21:00,54.6,42.7,30.05,NE,46,2.0,0.0,64,0.00,,,0.00,WeatherTracker,2013-10-03 12:21:00,
2013-10-03 05:26:00,54.5,42.6,30.05,NE,46,0.0,0.0,64,0.00,,,0.00,WeatherTracker,2013-10-03 12:26:00,
2013-10-03 05:31:00,54.3,42.8,30.05,NE,46,2.0,0.0,65,0.00,,,0.00,WeatherTracker,2013-10-03 12:31:00,
2013-10-03 05:36:00,54.2,42.7,30.05,NE,46,1.0,0.0,65,0.00,,,0.00,WeatherTracker,2013-10-03 12:36:00,
2013-10-03 05:41:00,54.1,42.6,30.06,NE,37,0.0,0.0,65,0.00,,,0.00,WeatherTracker,2013-10-03 12:41:00,
2013-10-03 05:46:00,53.9,42.8,30.06,NE,37,0.0,0.0,66,0.00,,,0.00,WeatherTracker,2013-10-03 12:46:00,
2013-10-03 05:51:00,53.8,42.7,30.06,NE,37,1.0,0.0,66,0.00,,,0.00,WeatherTracker,2013-10-03 12:51:00,
2013-10-03 05:56:00,53.7,42.6,30.06,NE,37,1.0,0.0,66,0.00,,,0.00,WeatherTracker,2013-10-03 12:56:00,
2013-10-03 06:01:00,53.6,42.5,30.06,NE,37,0.0,0.0,66,0.00,,,0.00,WeatherTracker,2013-10-03 13:01:00,
2013-10-03 06:06:00,53.4,42.7,30.06,NE,37,0.0,0.0,67,0.00,,,0.00,WeatherTracker,2013-10-03 13:06:00,
2013-10-03 06:11:00,53.3,42.6,30.06,NE,37,0.0,0.0,67,0.00,,,0.00,WeatherTracker,2013-10-03 13:11:00,
2013-10-03 06:16:00,53.2,42.5,30.06,NE,37,0.0,0.0,67,0.00,,,0.00,WeatherTracker,2013-10-03 13:16:00,
2013-10-03 06:21:00,53.0,42.3,30.06,NE,37,0.0,0.0,67,0.00,,,0.00,WeatherTracker,2013-10-03 13:21:00,
2013-10-03 06:27:00,53.0,42.3,30.06,NE,45,0.0,0.0,67,0.00,,,0.00,WeatherTracker,2013-10-03 13:27:00,
2013-10-03 06:32:00,53.0,42.3,30.06,NE,46,1.0,0.0,67,0.00,,,0.00,WeatherTracker,2013-10-03 13:32:00,
2013-10-03 06:37:00,53.1,42.0,30.06,NNE,33,1.0,0.0,66,0.00,,,0.00,WeatherTracker,2013-10-03 13:37:00,
2013-10-03 06:42:00,53.2,42.1,30.06,NE,46,0.0,0.0,66,0.00,,,0.00,WeatherTracker,2013-10-03 13:42:00,
2013-10-03 06:47:00,53.2,42.1,30.06,NE,47,0.0,0.0,66,0.00,,,0.00,WeatherTracker,2013-10-03 13:47:00,
2013-10-03 06:52:00,53.2,42.1,30.07,NE,46,0.0,0.0,66,0.00,,,0.00,WeatherTracker,2013-10-03 13:52:00,
2013-10-03 06:57:00,53.2,42.1,30.06,NE,51,0.0,0.0,66,0.00,,,0.00,WeatherTracker,2013-10-03 13:57:00,
2013-10-03 07:02:00,53.2,42.1,30.06,NE,51,0.0,0.0,66,0.00,,,0.00,WeatherTracker,2013-10-03 14:02:00,
2013-10-03 07:07:00,53.1,42.0,30.06,NE,51,2.0,0.0,66,0.00,,,0.00,WeatherTracker,2013-10-03 14:07:00,
2013-10-03 07:12:00,53.2,42.9,30.07,NE,51,0.0,0.0,68,0.00,,,0.00,WeatherTracker,2013-10-03 14:12:00,
2013-10-03 07:17:00,53.4,43.5,30.07,ENE,72,1.0,0.0,69,0.00,,,0.00,WeatherTracker,2013-10-03 14:17:00,
2013-10-03 07:22:00,53.5,42.8,30.07,ENE,60,3.0,0.0,67,0.00,,,0.00,WeatherTracker,2013-10-03 14:22:00,
2013-10-03 07:27:00,53.5,42.8,30.07,ENE,59,0.0,0.0,67,0.00,,,0.00,WeatherTracker,2013-10-03 14:27:00,
2013-10-03 07:32:00,53.5,42.4,30.07,ENE,59,2.0,0.0,66,0.00,,,0.00,WeatherTracker,2013-10-03 14:32:00,
2013-10-03 07:37:00,53.5,42.4,30.07,NE,48,0.0,0.0,66,0.00,,,0.00,WeatherTracker,2013-10-03 14:37:00,
2013-10-03 07:42:00,53.6,42.5,30.08,NE,48,2.0,0.0,66,0.00,,,0.00,WeatherTracker,2013-10-03 14:42:00,
2013-10-03 07:47:00,53.9,42.4,30.08,NE,48,2.0,0.0,65,0.00,,,0.00,WeatherTracker,2013-10-03 14:47:00,
2013-10-03 07:52:00,54.4,42.9,30.08,NE,48,1.0,0.0,65,0.00,,,0.00,WeatherTracker,2013-10-03 14:52:00,
2013-10-03 07:57:00,54.6,42.7,30.08,NE,50,1.0,0.0,64,0.00,,,0.00,WeatherTracker,2013-10-03 14:57:00,
2013-10-03 08:03:00,55.1,42.7,30.08,NE,55,0.0,0.0,63,0.00,,,0.00,WeatherTracker,2013-10-03 15:03:00,
2013-10-03 08:08:00,55.7,42.9,30.08,South,182,0.0,0.0,62,0.00,,,0.00,WeatherTracker,2013-10-03 15:08:00,
2013-10-03 08:13:00,55.9,43.1,30.08,South,186,0.0,0.0,62,0.00,,,0.00,WeatherTracker,2013-10-03 15:13:00,
2013-10-03 08:18:00,56.2,42.9,30.09,ENE,76,0.0,0.0,61,0.00,,,0.00,WeatherTracker,2013-10-03 15:18:00,
2013-10-03 08:23:00,56.5,42.8,30.09,ENE,61,1.0,0.0,60,0.00,,,0.00,WeatherTracker,2013-10-03 15:23:00,
2013-10-03 08:28:00,56.9,42.7,30.09,NE,55,1.0,0.0,59,0.00,,,0.00,WeatherTracker,2013-10-03 15:28:00,
2013-10-03 08:33:00,57.1,42.5,30.09,North,9,1.0,0.0,58,0.00,,,0.00,WeatherTracker,2013-10-03 15:33:00,
2013-10-03 08:38:00,57.4,42.7,30.09,NE,40,3.0,0.0,58,0.00,,,0.00,WeatherTracker,2013-10-03 15:38:00,
2013-10-03 08:43:00,57.7,42.6,30.09,ENE,57,1.0,0.0,57,0.00,,,0.00,WeatherTracker,2013-10-03 15:43:00,
2013-10-03 08:48:00,57.9,42.8,30.09,NE,45,1.0,0.0,57,0.00,,,0.00,WeatherTracker,2013-10-03 15:48:00,
2013-10-03 08:53:00,58.0,42.9,30.09,NE,47,2.0,0.0,57,0.00,,,0.00,WeatherTracker,2013-10-03 15:53:00,
2013-10-03 08:58:00,58.2,43.0,30.09,NE,53,2.0,0.0,57,0.00,,,0.00,WeatherTracker,2013-10-03 15:58:00,
2013-10-03 09:03:00,58.5,43.3,30.09,NE,42,1.0,0.0,57,0.00,,,0.00,WeatherTracker,2013-10-03 16:03:00,
2013-10-03 09:08:00,58.8,43.1,30.09,NE,47,1.0,0.0,56,0.00,,,0.00,WeatherTracker,2013-10-03 16:08:00,
2013-10-03 09:13:00,59.0,42.9,30.09,NE,40,0.0,0.0,55,0.00,,,0.00,WeatherTracker,2013-10-03 16:13:00,
2013-10-03 09:18:00,59.0,43.3,30.09,NE,54,1.0,0.0,56,0.00,,,0.00,WeatherTracker,2013-10-03 16:18:00,
2013-10-03 09:23:00,59.3,44.1,30.09,NE,47,0.0,0.0,57,0.00,,,0.00,WeatherTracker,2013-10-03 16:23:00,
2013-10-03 09:28:00,59.9,43.7,30.09,West,273,3.0,0.0,55,0.00,,,0.00,WeatherTracker,2013-10-03 16:28:00,
2013-10-03 09:33:00,60.1,42.9,30.09,WNW,287,2.0,0.0,53,0.00,,,0.00,WeatherTracker,2013-10-03 16:33:00,
2013-10-03 09:38:00,60.2,43.5,30.09,WNW,290,2.0,0.0,54,0.00,,,0.00,WeatherTracker,2013-10-03 16:38:00,
2013-10-03 09:43:00,60.3,43.1,30.09,NE,52,3.0,0.0,53,0.00,,,0.00,WeatherTracker,2013-10-03 16:43:00,
2013-10-03 09:48:00,60.6,43.4,30.09,NE,46,0.0,0.0,53,0.00,,,0.00,WeatherTracker,2013-10-03 16:48:00,
2013-10-03 09:53:00,60.7,43.0,30.10,SW,236,1.0,0.0,52,0.00,,,0.00,WeatherTracker,2013-10-03 16:53:00,
2013-10-03 09:58:00,60.8,42.6,30.09,NE,51,1.0,0.0,51,0.00,,,0.00,WeatherTracker,2013-10-03 16:58:00,
2013-10-03 10:03:00,61.1,42.8,30.10,West,276,3.0,0.0,51,0.00,,,0.00,WeatherTracker,2013-10-03 17:03:00,
2013-10-03 10:08:00,61.6,42.8,30.09,WNW,293,0.0,0.0,50,0.00,,,0.00,WeatherTracker,2013-10-03 17:08:00,
2013-10-03 10:13:00,62.2,43.8,30.09,NW,324,2.0,0.0,51,0.00,,,0.00,WeatherTracker,2013-10-03 17:13:00,
2013-10-03 10:18:00,62.3,42.9,30.09,WNW,296,1.0,0.0,49,0.00,,,0.00,WeatherTracker,2013-10-03 17:18:00,
2013-10-03 10:23:00,62.6,43.2,30.09,NNE,19,0.0,0.0,49,0.00,,,0.00,WeatherTracker,2013-10-03 17:23:00,
2013-10-03 10:29:00,63.0,43.5,30.09,NNW,342,0.0,0.0,49,0.00,,,0.00,WeatherTracker,2013-10-03 17:29:00,
2013-10-03 10:34:00,63.3,43.3,30.09,West,262,2.0,0.0,48,0.00,,,0.00,WeatherTracker,2013-10-03 17:34:00,
2013-10-03 10:39:00,63.7,43.1,30.09,WNW,287,3.0,0.0,47,0.00,,,0.00,WeatherTracker,2013-10-03 17:39:00,
2013-10-03 10:44:00,64.0,43.4,30.09,NE,35,1.0,0.0,47,0.00,,,0.00,WeatherTracker,2013-10-03 17:44:00,
2013-10-03 10:49:00,64.5,43.8,30.09,NE,34,2.0,0.0,47,0.00,,,0.00,WeatherTracker,2013-10-03 17:49:00,
2013-10-03 10:54:00,64.7,41.7,30.09,NE,42,4.0,0.0,43,0.00,,,0.00,WeatherTracker,2013-10-03 17:54:00,
2013-10-03 10:59:00,65.2,40.3,30.08,NE,51,0.0,0.0,40,0.00,,,0.00,WeatherTracker,2013-10-03 17:59:00,
2013-10-03 11:04:00,65.6,43.7,30.08,NW,313,0.0,0.0,45,0.00,,,0.00,WeatherTracker,2013-10-03 18:04:00,
2013-10-03 11:09:00,66.1,39.7,30.08,NNE,22,2.0,0.0,38,0.00,,,0.00,WeatherTracker,2013-10-03 18:09:00,
2013-10-03 11:14:00,66.3,39.2,30.08,NE,48,8.0,0.0,37,0.00,,,0.00,WeatherTracker,2013-10-03 18:14:00,
2013-10-03 11:19:00,66.4,38.6,30.07,NNE,33,0.0,0.0,36,0.00,,,0.00,WeatherTracker,2013-10-03 18:19:00,
2013-10-03 11:24:00,66.6,38.8,30.07,NE,51,9.0,0.0,36,0.00,,,0.00,WeatherTracker,2013-10-03 18:24:00,
2013-10-03 11:29:00,67.1,38.5,30.07,NNE,32,1.0,0.0,35,0.00,,,0.00,WeatherTracker,2013-10-03 18:29:00,
2013-10-03 11:34:00,67.2,39.3,30.07,NE,42,7.0,0.0,36,0.00,,,0.00,WeatherTracker,2013-10-03 18:34:00,
2013-10-03 11:39:00,67.4,39.5,30.07,North,360,2.0,0.0,36,0.00,,,0.00,WeatherTracker,2013-10-03 18:39:00,
2013-10-03 11:44:00,68.1,39.4,30.07,NE,46,0.0,0.0,35,0.00,,,0.00,WeatherTracker,2013-10-03 18:44:00,
2013-10-03 11:49:00,68.5,41.2,30.07,West,276,0.0,0.0,37,0.00,,,0.00,WeatherTracker,2013-10-03 18:49:00,
2013-10-03 11:54:00,68.2,41.6,30.07,WNW,303,2.0,0.0,38,0.00,,,0.00,WeatherTracker,2013-10-03 18:54:00,
2013-10-03 11:59:00,67.8,41.3,30.06,WNW,284,4.0,0.0,38,0.00,,,0.00,WeatherTracker,2013-10-03 18:59:00,
2013-10-03 12:04:00,68.2,39.5,30.07,West,272,3.0,0.0,35,0.00,,,0.00,WeatherTracker,2013-10-03 19:04:00,
2013-10-03 12:09:00,68.8,40.7,30.06,West,262,0.0,0.0,36,0.00,,,0.00,WeatherTracker,2013-10-03 19:09:00,
2013-10-03 12:14:00,68.5,40.5,30.06,NNW,348,2.0,0.0,36,0.00,,,0.00,WeatherTracker,2013-10-03 19:14:00,
2013-10-03 12:19:00,68.8,41.5,30.06,NNE,22,0.0,0.0,37,0.00,,,0.00,WeatherTracker,2013-10-03 19:19:00,
2013-10-03 12:24:00,69.4,40.6,30.05,NE,42,0.0,0.0,35,0.00,,,0.00,WeatherTracker,2013-10-03 19:24:00,
2013-10-03 12:29:00,69.4,40.6,30.05,NW,323,1.0,0.0,35,0.00,,,0.00,WeatherTracker,2013-10-03 19:29:00,
2013-10-03 12:35:00,69.0,40.9,30.05,North,355,0.0,0.0,36,0.00,,,0.00,WeatherTracker,2013-10-03 19:35:00,
2013-10-03 12:40:00,69.1,40.3,30.05,WNW,292,1.0,0.0,35,0.00,,,0.00,WeatherTracker,2013-10-03 19:40:00,
2013-10-03 12:45:00,69.9,40.2,30.05,NNW,331,0.0,0.0,34,0.00,,,0.00,WeatherTracker,2013-10-03 19:45:00,
2013-10-03 12:50:00,69.9,40.2,30.05,WNW,297,2.0,0.0,34,0.00,,,0.00,WeatherTracker,2013-10-03 19:50:00,
2013-10-03 12:55:00,70.2,41.3,30.04,WSW,254,6.0,0.0,35,0.00,,,0.00,WeatherTracker,2013-10-03 19:55:00,
2013-10-03 13:00:00,70.5,42.2,30.04,WNW,288,4.0,0.0,36,0.00,,,0.00,WeatherTracker,2013-10-03 20:00:00,
2013-10-03 13:05:00,67.7,47.8,30.04,West,261,3.0,0.0,49,0.00,,,0.00,WeatherTracker,2013-10-03 20:05:00,
2013-10-03 13:10:00,66.7,46.9,30.04,NW,305,3.0,0.0,49,0.00,,,0.00,WeatherTracker,2013-10-03 20:10:00,
2013-10-03 13:15:00,66.8,48.6,30.03,West,272,4.0,0.0,52,0.00,,,0.00,WeatherTracker,2013-10-03 20:15:00,
2013-10-03 13:20:00,66.3,49.6,30.03,West,264,2.0,0.0,55,0.00,,,0.00,WeatherTracker,2013-10-03 20:20:00,
2013-10-03 13:25:00,66.5,49.3,30.03,WNW,292,4.0,0.0,54,0.00,,,0.00,WeatherTracker,2013-10-03 20:25:00,
2013-10-03 13:30:00,66.0,49.4,30.03,WNW,299,2.0,0.0,55,0.00,,,0.00,WeatherTracker,2013-10-03 20:30:00,
2013-10-03 13:35:00,66.3,47.6,30.02,WNW,300,4.0,0.0,51,0.00,,,0.00,WeatherTracker,2013-10-03 20:35:00,
2013-10-03 13:40:00,65.9,46.7,30.02,SW,223,6.0,0.0,50,0.00,,,0.00,WeatherTracker,2013-10-03 20:40:00,
2013-10-03 13:45:00,66.6,48.9,30.02,NW,326,3.0,0.0,53,0.00,,,0.00,WeatherTracker,2013-10-03 20:45:00,
2013-10-03 13:50:00,67.0,48.8,30.02,WSW,239,10.0,0.0,52,0.00,,,0.00,WeatherTracker,2013-10-03 20:50:00,
2013-10-03 13:55:00,66.0,49.4,30.02,WNW,283,4.0,0.0,55,0.00,,,0.00,WeatherTracker,2013-10-03 20:55:00,
2013-10-03 14:00:00,66.7,49.5,30.02,WSW,248,2.0,0.0,54,0.00,,,0.00,WeatherTracker,2013-10-03 21:00:00,
2013-10-03 14:05:00,66.8,49.1,30.01,WNW,291,5.0,0.0,53,0.00,,,0.00,WeatherTracker,2013-10-03 21:05:00,
2013-10-03 14:10:00,66.2,49.5,30.01,West,277,3.0,0.0,55,0.00,,,0.00,WeatherTracker,2013-10-03 21:10:00,
2013-10-03 14:15:00,67.2,50.0,30.01,WNW,294,2.0,0.0,54,0.00,,,0.00,WeatherTracker,2013-10-03 21:15:00,
2013-10-03 14:21:00,67.6,50.4,30.01,WSW,239,2.0,0.0,54,0.00,,,0.00,WeatherTracker,2013-10-03 21:21:00,
2013-10-03 14:26:00,65.7,50.0,30.01,SW,230,6.0,0.0,57,0.00,,,0.00,WeatherTracker,2013-10-03 21:26:00,
2013-10-03 14:31:00,65.4,51.1,30.01,West,274,12.0,0.0,60,0.00,,,0.00,WeatherTracker,2013-10-03 21:31:00,
2013-10-03 14:36:00,64.7,50.5,30.01,West,264,6.0,0.0,60,0.00,,,0.00,WeatherTracker,2013-10-03 21:36:00,
2013-10-03 14:41:00,64.5,50.3,30.01,West,260,5.0,0.0,60,0.00,,,0.00,WeatherTracker,2013-10-03 21:41:00,
2013-10-03 14:46:00,65.6,51.8,30.00,WNW,287,2.0,0.0,61,0.00,,,0.00,WeatherTracker,2013-10-03 21:46:00,
2013-10-03 14:51:00,67.0,51.3,30.00,West,267,1.0,0.0,57,0.00,,,0.00,WeatherTracker,2013-10-03 21:51:00,
2013-10-03 14:56:00,67.1,50.9,30.00,West,279,3.0,0.0,56,0.00,,,0.00,WeatherTracker,2013-10-03 21:56:00,
2013-10-03 15:01:00,67.1,50.9,30.00,West,269,3.0,0.0,56,0.00,,,0.00,WeatherTracker,2013-10-03 22:01:00,
2013-10-03 15:06:00,67.5,50.3,30.00,West,275,3.0,0.0,54,0.00,,,0.00,WeatherTracker,2013-10-03 22:06:00,
2013-10-03 15:11:00,67.4,50.7,30.00,WNW,296,2.0,0.0,55,0.00,,,0.00,WeatherTracker,2013-10-03 22:11:00,
2013-10-03 15:16:00,67.7,50.4,30.00,West,273,1.0,0.0,54,0.00,,,0.00,WeatherTracker,2013-10-03 22:16:00,
2013-10-03 15:21:00,67.9,50.6,29.99,WSW,254,2.0,0.0,54,0.00,,,0.00,WeatherTracker,2013-10-03 22:21:00,
2013-10-03 15:26:00,67.8,50.0,29.99,WNW,296,1.0,0.0,53,0.00,,,0.00,WeatherTracker,2013-10-03 22:26:00,
2013-10-03 15:31:00,68.6,49.7,29.99,WNW,300,1.0,0.0,51,0.00,,,0.00,WeatherTracker,2013-10-03 22:31:00,
2013-10-03 15:36:00,69.1,49.1,29.99,West,274,2.0,0.0,49,0.00,,,0.00,WeatherTracker,2013-10-03 22:36:00,
2013-10-03 15:41:00,69.7,49.1,29.98,WSW,253,3.0,0.0,48,0.00,,,0.00,WeatherTracker,2013-10-03 22:41:00,
2013-10-03 15:46:00,69.2,50.3,29.98,WSW,253,3.0,0.0,51,0.00,,,0.00,WeatherTracker,2013-10-03 22:46:00,
2013-10-03 15:51:00,69.2,52.8,29.98,West,275,5.0,0.0,56,0.00,,,0.00,WeatherTracker,2013-10-03 22:51:00,
2013-10-03 15:56:00,68.2,52.4,29.98,WNW,284,4.0,0.0,57,0.00,,,0.00,WeatherTracker,2013-10-03 22:56:00,
2013-10-03 16:01:00,67.4,52.1,29.98,West,277,3.0,0.0,58,0.00,,,0.00,WeatherTracker,2013-10-03 23:01:00,
2013-10-03 16:06:00,67.4,49.2,29.98,West,275,2.0,0.0,52,0.00,,,0.00,WeatherTracker,2013-10-03 23:06:00,
2013-10-03 16:12:00,68.6,49.7,29.97,West,272,2.0,0.0,51,0.00,,,0.00,WeatherTracker,2013-10-03 23:12:00,
2013-10-03 16:17:00,69.2,50.3,29.97,South,187,3.0,0.0,51,0.00,,,0.00,WeatherTracker,2013-10-03 23:17:00,
2013-10-03 16:22:00,70.7,43.8,29.97,West,274,3.0,0.0,38,0.00,,,0.00,WeatherTracker,2013-10-03 23:22:00,
2013-10-03 16:27:00,70.6,47.0,29.98,NE,36,0.0,0.0,43,0.00,,,0.00,WeatherTracker,2013-10-03 23:27:00,
2013-10-03 16:32:00,72.0,37.1,29.97,NE,49,5.0,0.0,28,0.00,,,0.00,WeatherTracker,2013-10-03 23:32:00,
2013-10-03 16:37:00,73.5,34.5,29.97,NE,36,7.0,0.0,24,0.00,,,0.00,WeatherTracker,2013-10-03 23:37:00,
2013-10-03 16:42:00,73.8,33.7,29.97,NE,42,5.0,0.0,23,0.00,,,0.00,WeatherTracker,2013-10-03 23:42:00,
2013-10-03 16:47:00,74.2,34.0,29.97,NNE,32,4.0,0.0,23,0.00,,,0.00,WeatherTracker,2013-10-03 23:47:00,
2013-10-03 16:52:00,74.1,32.8,29.97,NE,45,4.0,0.0,22,0.00,,,0.00,WeatherTracker,2013-10-03 23:52:00,
2013-10-03 16:57:00,73.9,32.7,29.97,NE,52,7.0,0.0,22,0.00,,,0.00,WeatherTracker,2013-10-03 23:57:00,
2013-10-03 17:02:00,73.6,33.5,29.97,ENE,78,0.0,0.0,23,0.00,,,0.00,WeatherTracker,2013-10-04 00:02:00,
2013-10-03 17:07:00,73.6,33.5,29.97,ENE,69,5.0,0.0,23,0.00,,,0.00,WeatherTracker,2013-10-04 00:07:00,
2013-10-03 17:12:00,73.5,34.5,29.97,NE,39,8.0,0.0,24,0.00,,,0.00,WeatherTracker,2013-10-04 00:12:00,
2013-10-03 17:17:00,73.3,34.3,29.97,NE,51,1.0,0.0,24,0.00,,,0.00,WeatherTracker,2013-10-04 00:17:00,
2013-10-03 17:22:00,73.3,34.3,29.96,NE,46,5.0,0.0,24,0.00,,,0.00,WeatherTracker,2013-10-04 00:22:00,
2013-10-03 17:27:00,73.2,34.2,29.96,NNE,29,4.0,0.0,24,0.00,,,0.00,WeatherTracker,2013-10-04 00:27:00,
2013-10-03 17:32:00,73.2,34.2,29.96,NW,318,2.0,0.0,24,0.00,,,0.00,WeatherTracker,2013-10-04 00:32:00,
2013-10-03 17:37:00,73.1,35.2,29.96,NNE,22,5.0,0.0,25,0.00,,,0.00,WeatherTracker,2013-10-04 00:37:00,
2013-10-03 17:42:00,73.1,35.2,29.96,ENE,59,6.0,0.0,25,0.00,,,0.00,WeatherTracker,2013-10-04 00:42:00,
2013-10-03 17:47:00,73.0,34.1,29.96,NE,49,5.0,0.0,24,0.00,,,0.00,WeatherTracker,2013-10-04 00:47:00,
2013-10-03 17:52:00,72.9,35.0,29.96,ENE,75,4.0,0.0,25,0.00,,,0.00,WeatherTracker,2013-10-04 00:52:00,
2013-10-03 17:57:00,72.8,34.9,29.96,NE,53,4.0,0.0,25,0.00,,,0.00,WeatherTracker,2013-10-04 00:57:00,
2013-10-03 18:03:00,72.7,34.8,29.96,NE,43,9.0,0.0,25,0.00,,,0.00,WeatherTracker,2013-10-04 01:03:00,
2013-10-03 18:08:00,72.6,34.8,29.96,ENE,63,7.0,0.0,25,0.00,,,0.00,WeatherTracker,2013-10-04 01:08:00,
2013-10-03 18:13:00,72.5,34.7,29.96,NNE,32,1.0,0.0,25,0.00,,,0.00,WeatherTracker,2013-10-04 01:13:00,
2013-10-03 18:18:00,72.3,34.5,29.96,NE,45,3.0,0.0,25,0.00,,,0.00,WeatherTracker,2013-10-04 01:18:00,
2013-10-03 18:23:00,72.2,35.4,29.96,ENE,78,4.0,0.0,26,0.00,,,0.00,WeatherTracker,2013-10-04 01:23:00,
2013-10-03 18:28:00,72.1,35.3,29.96,NE,40,2.0,0.0,26,0.00,,,0.00,WeatherTracker,2013-10-04 01:28:00,
2013-10-03 18:33:00,71.9,35.1,29.96,NE,46,6.0,0.0,26,0.00,,,0.00,WeatherTracker,2013-10-04 01:33:00,
2013-10-03 18:38:00,71.8,35.1,29.96,ENE,70,0.0,0.0,26,0.00,,,0.00,WeatherTracker,2013-10-04 01:38:00,
2013-10-03 18:43:00,71.6,34.9,29.96,WSW,244,2.0,0.0,26,0.00,,,0.00,WeatherTracker,2013-10-04 01:43:00,
2013-10-03 18:48:00,71.3,35.6,29.97,NE,48,3.0,0.0,27,0.00,,,0.00,WeatherTracker,2013-10-04 01:48:00,
2013-10-03 18:53:00,71.2,35.5,29.97,NE,46,4.0,0.0,27,0.00,,,0.00,WeatherTracker,2013-10-04 01:53:00,
2013-10-03 18:58:00,70.9,35.2,29.96,NE,40,4.0,0.0,27,0.00,,,0.00,WeatherTracker,2013-10-04 01:58:00,
2013-10-03 19:03:00,70.7,35.1,29.96,NE,40,0.0,0.0,27,0.00,,,0.00,WeatherTracker,2013-10-04 02:03:00,
2013-10-03 19:08:00,70.6,35.0,29.97,NE,45,0.0,0.0,27,0.00,,,0.00,WeatherTracker,2013-10-04 02:08:00,
2013-10-03 19:13:00,70.4,34.8,29.97,NE,36,0.0,0.0,27,0.00,,,0.00,WeatherTracker,2013-10-04 02:13:00,
2013-10-03 19:18:00,70.2,34.6,29.97,NE,34,5.0,0.0,27,0.00,,,0.00,WeatherTracker,2013-10-04 02:18:00,
2013-10-03 19:23:00,70.1,35.5,29.97,NNE,33,2.0,0.0,28,0.00,,,0.00,WeatherTracker,2013-10-04 02:23:00,
2013-10-03 19:28:00,69.9,35.3,29.97,NNE,25,0.0,0.0,28,0.00,,,0.00,WeatherTracker,2013-10-04 02:28:00,
2013-10-03 19:33:00,69.8,34.3,29.98,NE,37,0.0,0.0,27,0.00,,,0.00,WeatherTracker,2013-10-04 02:33:00,
2013-10-03 19:38:00,69.7,34.2,29.97,NNE,29,0.0,0.0,27,0.00,,,0.00,WeatherTracker,2013-10-04 02:38:00,
2013-10-03 19:44:00,69.7,34.2,29.97,NE,50,2.0,0.0,27,0.00,,,0.00,WeatherTracker,2013-10-04 02:44:00,
2013-10-03 19:49:00,69.7,34.2,29.97,East,79,0.0,0.0,27,0.00,,,0.00,WeatherTracker,2013-10-04 02:49:00,
2013-10-03 19:54:00,69.5,34.0,29.97,NNE,12,3.0,0.0,27,0.00,,,0.00,WeatherTracker,2013-10-04 02:54:00,
2013-10-03 19:59:00,69.4,34.9,29.97,NNE,15,3.0,0.0,28,0.00,,,0.00,WeatherTracker,2013-10-04 02:59:00,
2013-10-03 20:04:00,69.3,34.8,29.98,WSW,248,2.0,0.0,28,0.00,,,0.00,WeatherTracker,2013-10-04 03:04:00,
2013-10-03 20:09:00,69.2,34.7,29.97,NE,37,2.0,0.0,28,0.00,,,0.00,WeatherTracker,2013-10-04 03:09:00,
2013-10-03 20:14:00,69.2,33.8,29.98,ENE,59,1.0,0.0,27,0.00,,,0.00,WeatherTracker,2013-10-04 03:14:00,
2013-10-03 20:19:00,69.2,33.8,29.98,North,9,4.0,0.0,27,0.00,,,0.00,WeatherTracker,2013-10-04 03:19:00,
2013-10-03 20:24:00,69.1,34.6,29.98,NNE,21,0.0,0.0,28,0.00,,,0.00,WeatherTracker,2013-10-04 03:24:00,
2013-10-03 20:36:00,68.9,34.4,29.98,NE,51,7.0,0.0,28,0.00,,,0.00,WeatherTracker,2013-10-04 03:36:00,
2013-10-03 20:41:00,68.8,34.4,29.98,ESE,107,1.0,0.0,28,0.00,,,0.00,WeatherTracker,2013-10-04 03:41:00,
2013-10-03 20:46:00,68.8,35.2,29.98,NE,40,4.0,0.0,29,0.00,,,0.00,WeatherTracker,2013-10-04 03:46:00,
2013-10-03 20:51:00,68.8,34.4,29.98,West,271,4.0,0.0,28,0.00,,,0.00,WeatherTracker,2013-10-04 03:51:00,
2013-10-03 20:56:00,68.7,35.2,29.98,ENE,60,1.0,0.0,29,0.00,,,0.00,WeatherTracker,2013-10-04 03:56:00,
2013-10-03 21:31:00,68.3,35.7,29.98,NE,46,4.0,0.0,30,0.00,,,0.00,WeatherTracker,2013-10-04 04:31:00,
2013-10-03 21:32:00,68.3,35.7,29.98,NE,46,2.0,0.0,30,0.00,,,0.00,WeatherTracker,2013-10-04 04:32:00,
2013-10-03 21:34:00,68.2,35.6,29.98,NE,55,5.0,0.0,30,0.00,,,0.00,WeatherTracker,2013-10-04 04:34:00,
2013-10-03 21:35:00,68.3,35.7,29.98,North,11,0.0,0.0,30,0.00,,,0.00,WeatherTracker,2013-10-04 04:35:00,
2013-10-03 21:36:00,68.3,35.7,29.98,NE,53,6.0,0.0,30,0.00,,,0.00,WeatherTracker,2013-10-04 04:36:00,
2013-10-03 21:37:00,68.3,35.7,29.98,ENE,72,4.0,0.0,30,0.00,,,0.00,WeatherTracker,2013-10-04 04:37:00,
2013-10-03 21:38:00,68.4,35.7,29.98,WNW,299,2.0,0.0,30,0.00,,,0.00,WeatherTracker,2013-10-04 04:38:00,
2013-10-03 21:42:00,68.5,35.8,29.98,WNW,293,2.0,0.0,30,0.00,,,0.00,WeatherTracker,2013-10-04 04:42:00,
2013-10-03 21:43:00,68.5,36.7,29.98,WNW,292,1.0,0.0,31,0.00,,,0.00,WeatherTracker,2013-10-04 04:43:00,
2013-10-03 21:45:00,68.6,36.8,29.98,NE,55,2.0,0.0,31,0.00,,,0.00,WeatherTracker,2013-10-04 04:45:00,
2013-10-03 21:46:00,68.6,35.9,29.98,NE,47,0.0,0.0,30,0.00,,,0.00,WeatherTracker,2013-10-04 04:46:00,
2013-10-03 21:50:00,68.6,35.9,29.98,NE,46,7.0,0.0,30,0.00,,,0.00,WeatherTracker,2013-10-04 04:50:00,
2013-10-03 21:51:00,68.6,35.9,29.98,West,263,5.0,0.0,30,0.00,,,0.00,WeatherTracker,2013-10-04 04:51:00,
2013-10-03 21:53:00,68.6,35.9,29.98,NE,46,3.0,0.0,30,0.00,,,0.00,WeatherTracker,2013-10-04 04:53:00,
2013-10-03 21:57:00,68.6,35.9,29.98,ENE,57,3.0,0.0,30,0.00,,,0.00,WeatherTracker,2013-10-04 04:57:00,
2013-10-03 21:59:00,68.6,36.8,29.98,NNE,32,4.0,0.0,31,0.00,,,0.00,WeatherTracker,2013-10-04 04:59:00,
2013-10-03 22:01:00,68.6,35.1,29.98,NNW,331,1.0,0.0,29,0.00,,,0.00,WeatherTracker,2013-10-04 05:01:00,
2013-10-03 22:02:00,68.6,35.1,29.98,NW,307,0.0,0.0,29,0.00,,,0.00,WeatherTracker,2013-10-04 05:02:00,
2013-10-03 22:05:00,68.6,35.1,29.98,North,5,0.0,0.0,29,0.00,,,0.00,WeatherTracker,2013-10-04 05:05:00,
2013-10-03 22:06:00,68.6,35.1,29.97,WNW,302,3.0,0.0,29,0.00,,,0.00,WeatherTracker,2013-10-04 05:06:00,
2013-10-03 22:08:00,68.6,35.1,29.97,NE,49,0.0,0.0,29,0.00,,,0.00,WeatherTracker,2013-10-04 05:08:00,
2013-10-03 22:10:00,68.5,35.0,29.98,NE,44,6.0,0.0,29,0.00,,,0.00,WeatherTracker,2013-10-04 05:10:00,
2013-10-03 22:13:00,68.5,35.0,29.97,West,281,3.0,0.0,29,0.00,,,0.00,WeatherTracker,2013-10-04 05:13:00,
2013-10-03 22:14:00,68.4,34.9,29.97,NE,46,4.0,0.0,29,0.00,,,0.00,WeatherTracker,2013-10-04 05:14:00,
2013-10-03 22:16:00,68.4,34.9,29.98,NNE,32,2.0,0.0,29,0.00,,,0.00,WeatherTracker,2013-10-04 05:16:00,
2013-10-03 22:18:00,68.4,34.0,29.97,North,11,2.0,0.0,28,0.00,,,0.00,WeatherTracker,2013-10-04 05:18:00,
2013-10-03 22:24:00,68.4,34.0,29.98,NE,36,3.0,0.0,28,0.00,,,0.00,WeatherTracker,2013-10-04 05:24:00,
2013-10-03 22:27:00,68.5,34.1,29.98,NE,34,1.0,0.0,28,0.00,,,0.00,WeatherTracker,2013-10-04 05:27:00,
2013-10-03 22:32:00,68.5,34.1,29.98,NNW,331,1.0,0.0,28,0.00,,,0.00,WeatherTracker,2013-10-04 05:32:00,
2013-10-03 22:37:00,68.3,33.9,29.98,North,355,0.0,0.0,28,0.00,,,0.00,WeatherTracker,2013-10-04 05:37:00,
2013-10-03 22:42:00,68.3,33.9,29.98,NE,37,4.0,0.0,28,0.00,,,0.00,WeatherTracker,2013-10-04 05:42:00,
2013-10-03 22:47:00,68.2,33.8,29.98,NNE,24,0.0,0.0,28,0.00,,,0.00,WeatherTracker,2013-10-04 05:47:00,
2013-10-03 22:52:00,68.2,32.9,29.97,NE,34,5.0,0.0,27,0.00,,,0.00,WeatherTracker,2013-10-04 05:52:00,
2013-10-03 22:58:00,68.3,33.0,29.97,NNE,28,1.0,0.0,27,0.00,,,0.00,WeatherTracker,2013-10-04 05:58:00,
2013-10-03 23:03:00,68.3,33.0,29.97,NE,51,2.0,0.0,27,0.00,,,0.00,WeatherTracker,2013-10-04 06:03:00,
2013-10-03 23:08:00,68.4,33.1,29.97,NE,51,4.0,0.0,27,0.00,,,0.00,WeatherTracker,2013-10-04 06:08:00,
2013-10-03 23:13:00,68.5,33.2,29.97,ENE,60,5.0,0.0,27,0.00,,,0.00,WeatherTracker,2013-10-04 06:13:00,
2013-10-03 23:18:00,68.5,32.3,29.97,NE,39,7.0,0.0,26,0.00,,,0.00,WeatherTracker,2013-10-04 06:18:00,
2013-10-03 23:23:00,68.4,33.1,29.97,NE,56,4.0,0.0,27,0.00,,,0.00,WeatherTracker,2013-10-04 06:23:00,
2013-10-03 23:28:00,68.5,33.2,29.97,NE,55,3.0,0.0,27,0.00,,,0.00,WeatherTracker,2013-10-04 06:28:00,
2013-10-03 23:33:00,68.4,33.1,29.97,ENE,59,4.0,0.0,27,0.00,,,0.00,WeatherTracker,2013-10-04 06:33:00,
2013-10-03 23:38:00,68.3,32.1,29.97,NE,51,1.0,0.0,26,0.00,,,0.00,WeatherTracker,2013-10-04 06:38:00,
2013-10-03 23:43:00,68.2,32.0,29.97,NE,41,5.0,0.0,26,0.00,,,0.00,WeatherTracker,2013-10-04 06:43:00,
2013-10-03 23:48:00,68.1,31.9,29.97,NE,42,3.0,0.0,26,0.00,,,0.00,WeatherTracker,2013-10-04 06:48:00,
2013-10-03 23:53:00,68.3,32.1,29.97,NE,51,4.0,0.0,26,0.00,,,0.00,WeatherTracker,2013-10-04 06:53:00,
2013-10-03 23:58:00,68.3,32.1,29.97,ENE,65,3.0,0.0,26,0.00,,,0.00,WeatherTracker,2013-10-04 06:58:00,